星链-35301(STARLINK-35301)

导读

STARLINK-35301是美国于2025年9月29日发射的星链系列卫星,隶属于SpaceX打造的星链卫星互联网星座系统。星链项目旨在为全球提供高速低延迟互联网覆盖,该卫星入轨后将和其他星链卫星组网,进一步扩充星座容量,提升全球尤其是偏远地区的网络服务能力。

基本信息
目录编号:
65843
目录名称:
STARLINK-35301
国际标识:
2025-221W
轨道中心:
EARTH
卫星名称:
星链-35301
卫星全名:
星链-35301(STARLINK-35301)
卫星状态:
在轨 (已飞行340 天)
发射日期:
2025-09-29 UTC
国别 :
美国 (US)
星等 :
--
轨道信息
数据来源 国际轨道数据
星历时间: 2026-09-04T01:53:29+0800
15小时前
查看轨道信息
半长轴: 6840.809km
偏心率: 0.000105
轨道倾角: 53.159°
近地点辐角 86.123°
升交点赤经 337.812°
平近点角 273.989°
近地点: 461.953km
远地点: 463.391km
周期: 93.847分钟
每日圈数: 15.344107
详细信息
固有亮度:
5
最大亮度:
2.5
卫星平台:
Starlink V1.0
覆盖范围:
全球
运营商:
太空探索技术公司
运营商所在国:
美国
制造商(研发单位):
太空探索技术公司
制造商所在国:
美国
使用方式:
暂无
卫星简介
Starlink 计划是 SpaceX 推出的全球卫星互联网项目,通过发射低轨道卫星,为全球尤其是偏远地区提供高速、低延迟的互联网服务。自 2019 年起,Starlink 已部署数千颗卫星,旨在缩小全球数字鸿沟,推动互联网普及。该项目还为军事、航空等行业提供通信支持,带来广泛经济效益。
2D轨道图
3D轨道图
轨道高度分析图
轨道倾角分析图
轨道综合分析图
查看轨道综合分析图
交会数据列表
事件ID 空间交会对象 最接近时刻(TCA) 交会距离 交会风险概率(CRP) 交会风险指数(CRI) 操作
CDM_260904-195706-584306-590021
2026-09-04T
19:57:41+0000
0.498 km
远距离
1.401954E-4 高风险 0.78
CDM_260904-213106-584306-590021
2026-09-04T
21:31:28+0000
1.422 km
极远距离
5.112579E-6 低风险 0.49
CDM_260828-214106-584306-984321
2026-08-28T
21:41:18+0000
1.509 km
极远距离
4.0617E-6 低风险 0.47
CDM_260904-182306-584306-590021
2026-09-04T
18:23:53+0000
1.939 km
极远距离
2.047666E-6 低风险 0.41
CDM_260903-091505-362606-584321
2026-09-03T
09:15:01+0000
2.866 km
极远距离
1.26761E-6 低风险 0.37
CDM_260905-131205-286006-584321
2026-09-05T
13:12:48+0000
2.906 km
极远距离
7.073006E-7 极低风险 0.32
CDM_260906-023205-248506-584321
2026-09-06T
02:32:10+0000
2.687 km
极远距离
4.906562E-7 极低风险 0.29